C/2022 U4 ( Bok )

Japanese version
Home page
Updated on August 17, 2023

---------------------------------------------------------------------

* Profile

Discovery Date October 26, 2022
Magnitude 20.2 mag
Discoverer Bok NEO Survey

* Pictures

* Orbital Elements

Epoch 2023 Feb. 25.0 TT = JDT 2460000.5
T 2023 Aug. 3.68506 TT                                  Rudenko
q   2.8983742            (2000.0)            P               Q
z  +0.0002737      Peri.   89.00817     -0.46213423     +0.67320976
 +/-0.0000015      Node   132.93032     -0.68629306     -0.68374651
e   0.9992068      Incl.   52.03622     +0.56163493     -0.28156584
>From 546 observations 2022 Jan. 24-2023 July 2, mean residual 0".5.

* Magnitudes Graph

        m1 = 10.0 + 5 log d + 11.0 log r

---------------------------------------------------------------------

The orbital elements are published on M.P.E.C. 2023-N16.
The magnitudes graphs are made with Comet for Windows.

---------------------------------------------------------------------

Copyright(C) Seiichi Yoshida (comet@aerith.net). All rights reserved.